Other Public Products
Issued by NWS Grand Forks, ND

Home | Current Version | Previous Version | Graphics & Text | Print | Product List | Glossary On
Versions: 1 2 3 4 5 6 7 8 9 10 11 12 13 14 15 16 17 18 19 20 21 22 23 24 25 26 27 28 29 30 31 32 33 34 35 36 37 38 39 40 41 42 43 44 45 46 47 48 49 50
000
FPUS83 KFGF 250731
OPUFGF
PRAIRIE TO PINES WEATHER ROUNDUP
NATIONAL WEATHER SERVICE EASTERN NORTH DAKOTA/GRAND FORKS ND
100 AM CST THU DEC 25 2014

 **SATELLITE DATA USED TO AUGMENT SKY COVER AT AUTOMATED STATIONS**
 *****  WEATHER ACROSS EASTERN NORTH DAKOTA  *****

CITY           SKY/WX    TMP DP  RH WIND       PRES   REMARKS
GRAND FORKS    MOCLDY    27  23  86 NW7       29.45R WCI  19
GRAND FORKS AF MOCLDY    26  26 100 NW9       29.45R WCI  17
GRAND CITY NWS   N/A     27 N/A N/A NW3         N/A
BUXTON           N/A     27  26  96 SW5         N/A  WCI  22
DEVILS LAKE    CLEAR     19  16  86 W9        29.44R WCI   9
FARGO          CLOUDY    30  27  88 S8        29.48R WCI  22
WAHPETON ARPT  CLOUDY    30  28  93 S6        29.51S WCI  24
$$

 *****  WEATHER ACROSS CENTRAL AND WESTERN NORTH DAKOTA  *****

CITY           SKY/WX    TMP DP  RH WIND       PRES   REMARKS
JAMESTOWN      MOCLDY    28  24  85 W9        29.46R WCI  19
BISMARCK       PTCLDY    28  24  85 W5        29.52R WCI  23
MINOT          PTCLDY    26  20  77 W13       29.48R WCI  15
MINOT AFB      PTCLDY    23  23  99 NW12      29.48R WCI  12
GARRISON         N/A     25  21  85 NW13      29.49R WCI  14
WILLISTON      PTCLDY    20  17  88 CALM      29.55R
DICKINSON      MOCLDY    26  23  88 NW6       29.48R WCI  19
HETTINGER      CLOUDY    32  28  85 N6        29.49R
$$

 *****  OTHER OBSERVATIONS NORTHEAST NORTH DAKOTA  *****

CITY           SKY/WX    TMP DP  RH WIND       PRES   REMARKS
WALHALLA         N/A     30  30 100 NW14G20   29.43S WCI  20
LANGDON          N/A     27  25  93 NW14      29.41  WCI  15
CAVALIER       CLOUDY    30  27  86 NW10      29.44R WCI  21
GRAFTON        NOT AVBL
CANDO          FAIR      16  14  93 NW8       29.46R WCI   5
FORT TOTTEN      N/A     21  19  93 W2        29.95S
ROLLA          CLOUDY    23  23 100 NW14      29.45R WCI  11
RUGBY          FAIR      18  18 100 NW7       29.47R WCI   8
 ***** THE ABOVE OBSERVATIONS ARE NON NWS ARE NOT QUALITY
        CONTROLLED AND MAY MIS-REPORT RAIN FOR SNOW...
$$

 *****  OTHER OBSERVATIONS SOUTHEAST NORTH DAKOTA *****

CITY           SKY/WX    TMP DP  RH WIND       PRES   REMARKS
COOPERSTOWN    NOT AVBL
VALLEY CITY    FAIR      27  27 100 W9        29.46R WCI  17
OAKES            N/A     27  27 100 SW9       29.49S WCI  17
GWINNER        SUNNY     30  30 100 CALM      29.49F
BUFFALO        NOT AVBL
WYNDMERE         N/A     28  28 100 SW9         N/A  WCI  20
 ***** THE ABOVE OBSERVATIONS ARE NON NWS ARE NOT QUALITY
       CONTROLLED AND MAY MIS-REPORT RAIN FOR SNOW...
$$

  *****  WEATHER ACROSS NORTHERN MINNESOTA  *****

CITY           SKY/WX    TMP DP  RH WIND       PRES   REMARKS
FLAG ISLAND    CLOUDY    28  27  93 SW9       29.40R WCI  20
WARROAD        CLOUDY    28  25  86 SW7       29.41S FOG     WCI  21
ROSEAU         CLOUDY    30  25  80 S7        29.41S HAZE    WCI  23
HALLOCK        CLOUDY    30  27  86 W8        29.42R WCI  23
THF RVR FALLS  CLOUDY    28  27  93 SW9       29.43S WCI  20
HALSTAD          N/A     29  27  89 SW9         N/A  WCI  21
FOSSTON        CLOUDY    27  25  93 S14       29.44F WCI  15
BAUDETTE       CLOUDY    29  25  85 SW8       29.41S WCI  21
WASKISH        CLOUDY    30  27  86 SW13      29.44R WCI  20
CROOKSTON      CLOUDY    30  28  93 SW8       29.45S WCI  23
$$
  *****  WEATHER ACROSS CENTRAL AND WEST MINNESOTA  *****

CITY           SKY/WX    TMP DP  RH WIND       PRES   REMARKS
BEMIDJI        CLOUDY    29  25  85 SW7       29.44S WCI  22
PARK RAPIDS    CLOUDY    30  26  85 SW12      29.46R WCI  20
WADENA         FLURRIES  28  27  93 SW8       29.49R WCI  20
DETROIT LAKES  CLOUDY    30  28  93 SW10      29.47F WCI  21
MOORHEAD       CLOUDY    30  30 100 S8        29.50R WCI  23
FERGUS FALLS   CLOUDY    28  27  93 SW10      29.54S FOG     WCI  19
ELBOW LAKE     LGT SNOW  28  27  94 S10       29.52S WCI  19
MORRIS MN      CLOUDY    28  27  93 S8        29.53S WCI  20
STAPLES        CLOUDY    28  27  93 S6        29.50R WCI  22
WHEATON        MIX PCPN  28  25  86 S5        29.54S WCI  23
$$
  *****  WEATHER ELSEWHERE ACROSS MINNESOTA  *****

CITY           SKY/WX    TMP DP  RH WIND       PRES   REMARKS
DULUTH         CLOUDY    32  27  81 W12       29.47F WCI  23
INTRNTL FALLS  MOCLDY    29  27  92 SW5       29.42S WCI  24
ELY            CLOUDY    30  28  93 SW5       29.43F
CLOQUET        CLOUDY    30  27  86 SW10      29.49S WCI  21
BRAINERD       CLOUDY    30  27  88 S13       29.50S WCI  20
HIBBING        CLOUDY    32  28  85 SW6       29.45F
ALEXANDRIA     CLOUDY    28  26  92 SW13      29.52R WCI  17
SAINT CLOUD    CLOUDY    33  27  78 S14       29.55R WCI  23
MINNEAPOLIS    CLOUDY    31  27  85 SW13      29.59S WCI  21
$$

  *****  WEATHER ACROSS SOUTH DAKOTA  *****

CITY           SKY/WX    TMP DP  RH WIND       PRES   REMARKS
SIOUX FALLS    CLEAR     26  24  92 S8        29.54F WCI  18
BROOKINGS      NOT AVBL
WATERTOWN      MOCLDY    27  24  89 S8        29.49F WCI  19
HURON          MOCLDY    24  22  91 SE6       29.50F WCI  17
SISSETON         N/A     32  25  75 CALM      29.50R
ABERDEEN       CLOUDY    29  25  85 SW7       29.51S WCI  22
MITCHELL       MOCLDY    26  24  92 SE13      29.51F WCI  15
PIERRE         CLOUDY    26  24  92 NE6       29.45F WCI  19
MOBRIDGE       CLOUDY    29  25  85 CALM      29.46F
RAPID CITY     CLOUDY    34  25  69 NW12      29.44R
$$

  *****  SOME WEATHER IN NEARBY STATES *****

CITY           SKY/WX    TMP DP  RH WIND       PRES   REMARKS
GLASGOW MT     MOCLDY    26  21  81 NW10      29.61R WCI  16
GREAT FALLS MT MIX PCPN  27  27 100 NE9       29.65R WCI  17
CHEYENNE WY    MOCLDY    35  17  47 S5        29.45F
SCOTTSBLUFF NE CLOUDY    35  28  75 E3        29.43F
OMAHA NE       PTCLDY    30  27  88 S12       29.67F WCI  20
DES MOINES IA  CLOUDY    32  27  81 SW9       29.74S WCI  24
DAVENPORT IA   CLOUDY    33  27  78 W15G23    29.75R WCI  23
CHICAGO IL     CLOUDY    36  31  82 W16G22    29.67R
EAU CLAIRE WI  CLOUDY    32  27  81 W12       29.59S WCI  23
LA CROSSE WI   CLOUDY    35  29  78 W14       29.64R
$$

  *****  SOME NATIONAL WEATHER *****

CITY           SKY/WX    TMP DP  RH WIND       PRES   REMARKS
LA GUARDIA NY  CLOUDY    54  52  94 S8        29.53R FOG
RALEIGH NC     LGT RAIN  62  57  83 W9G21     29.72R
ATLANTA GA     PTCLDY    44  35  70 W14       29.95R
NEW ORLEANS LA PTCLDY    42  35  76 W8        30.15S
OKLAHOMA CITY  CLEAR     29  22  75 S7        29.87F WCI  22
ALBUQUERQUE NM MOCLDY    32  10  40 SE9       29.85F WCI  24
SALT LAKE CITY LGT RAIN  41  28  60 W20G28    29.45R
LOS ANGELES CA PTCLDY    60  54  80 SW8       29.83F
BOISE ID       CLOUDY    34  28  79 NW17      29.69R WCI  23
SEATTLE WA     CLOUDY    41  39  93 SE6       30.05R
$$

*** WEATHER ACROSS MANITOBA...SASKATCHEWAN AND ONTARIO ***
                ***ONTARIO***

CITY           SKY/WX    TMP DP  RH WIND       PRES   REMARKS
GERALDTON      LGT SNOW  23  21  93 N3        29.37S
THUNDER BAY    FLURRIES  28  27  93 W5        29.46S WCI  23
SIOUX LOOKOUT  LGT SNOW  30  28  93 S2        29.39F
TORONTO        MOCLDY    39  32  75 SW35G44   29.31R
BIG TROUT LK   FLURRIES  21  21 100 E3        29.49S
PICKLE LAKE    NOT AVBL
DRYDEN         FLURRIES  28  28 100 SW6       29.39S WCI  22
KENORA         NOT AVBL
$$
                *** MANITOBA***

CITY           SKY/WX    TMP DP  RH WIND       PRES   REMARKS
BRANDON        CLOUDY    27  23  86 W15       29.45R WCI  15
DAUPHIN        FLURRIES  23  19  86 NW13      29.47R WCI  11
ISLAND LAKE    FLURRIES  23  21  93 CALM      29.45
PILOT MOUND      N/A     27  25  93 NW16G24     N/A  WCI  14
THE PAS        FLURRIES  21  21 100 NW9       29.54R WCI  11
THOMPSON       LGT SNOW  16  14  93 N8        29.54R WCI   5
WINNIPEG       CLOUDY    28  25  86 W7        29.41R WCI  21
CHURCHILL      LGT SNOW  18  16  93 S6        29.63S WCI   9
GILLAM         LGT SNOW  16  14  93 NE5       29.56S WCI   9
$$
                ***SASKATCHEWAN***

CITY           SKY/WX    TMP DP  RH WIND       PRES   REMARKS
ESTEVAN        CLOUDY    27  23  86 W14       29.51R WCI  15
KINDERSLEY     CLOUDY    19  16  86 N15       29.69R WCI   5
LLOYDMINSTER   PTCLDY     9   7  92 NW9       29.75R WCI  -5
PRINCE ALBERT  LGT SNOW  21  19  93 N15       29.62R WCI   8
REGINA         FLURRIES  23  21  93 NW18      29.57R WCI   9
YORKTON        NOT AVBL
N. BATTLEFORD  FLURRIES  16  14  93 NW10      29.73R WCI   3



USA.gov is the U.S. government's official web portal to all federal, state and local government web resources and services.